Location: Newark
(44.2003°N, 3.2583°E)
Time: 11:55:32
(UTC+00:00)

SR - Pass Details

Date: 29 October 2019
Orbit: 574 x 882 km, 66.7° (Epoch: 12 November)

Event Time Altitude Azimuth Distance (km) Brightness Sun altitude
Rises 03:01:07 0° 333° (NNW) 3,446 - -35.8°
Reaches altitude 10° 03:04:01 10° 346° (NNW) 2,530 - -35.3°
Exits shadow 03:06:27 20° 6° (N) 1,919 ? -34.9°
Maximum altitude 03:08:56 26° 42° (NE) 1,656 ? -34.4°
Drops below altitude 10° 03:13:50 10° 98° (E) 2,530 ? -33.6°
Sets 03:16:43 0° 111° (ESE) 3,446 ? -33.1°
